Find Starlink 32555

NORAD ID: 61918 Int'l Des: 2024-207 Owner: SPXS Country: US Constellation: starlink operational
LEOCIRCULAR

实时位置

正在加载3D地球...

关于 Starlink 32555

正在加载描述...

即将过境

Passes for default location (London). Set your location on the main map for personalized predictions.

高度历史

Loading altitude history...

两行轨道根数

1 61918U 24207G 26105.60975226 .00007959 00000-0 29828-3 0 9993
2 61918 42.9985 77.1134 0000892 277.8460 82.2290 15.27595571 80323
Epoch: Apr 15, 2026 • Age: 12 hours

当前状态

高度 483.3 km
速度 7.63 km/s
星下点 24.74°N, 12.88°W
发射日期 Nov 11, 2024
运行时间 1.4 years
类型 internet

技术详情

分类 Payload
质量 730.00 kg
干质量 700.00 kg
总质量 730.00 kg
长度 0.30 m
直径 4.10 m
跨度 29.00 m
形状 Box + pan
制造商 SPXS
平台类型 Starlink V2M
阶段状态 In Orbit
所有者/国家 SPXS/US

Most Searched